Time,TemperatureF,DewpointF,PressureIn,WindDirection,WindDirectionDegrees,WindSpeedMPH,WindSpeedGustMPH,Humidity,HourlyPrecipIn,Conditions,Clouds,dailyrainin,SolarRadiationWatts/m^2,SoftwareType,DateUTC
2013-03-24 00:02:00,3.0,-2.0,-100.00,West,268,1.0,4.0,79,0.00,,,0.00,0.000000,,2013-03-24 06:02:00,
2013-03-24 00:32:00,-1.0,-6.0,-100.00,SW,236,2.0,3.0,78,0.00,,,0.00,0.000000,,2013-03-24 06:32:00,
2013-03-24 00:42:00,-1.0,-6.0,-100.00,SW,236,2.0,3.0,78,0.00,,,0.00,0.000000,,2013-03-24 06:42:00,
2013-03-24 00:52:00,-1.0,-6.0,-100.00,SW,236,2.0,3.0,78,0.00,,,0.00,0.000000,,2013-03-24 06:52:00,
2013-03-24 01:02:00,-1.0,-6.0,-100.00,SW,236,2.0,3.0,78,0.00,,,0.00,0.000000,,2013-03-24 07:02:00,
2013-03-24 01:32:00,-2.0,-8.0,-100.00,SW,236,1.0,3.0,76,0.00,,,0.00,0.000000,,2013-03-24 07:32:00,
2013-03-24 01:42:00,-2.0,-8.0,-100.00,SW,236,1.0,3.0,76,0.00,,,0.00,0.000000,,2013-03-24 07:42:00,
2013-03-24 01:52:00,-2.0,-8.0,-100.00,SW,236,1.0,3.0,76,0.00,,,0.00,0.000000,,2013-03-24 07:52:00,
2013-03-24 02:03:00,-2.0,-8.0,-100.00,SW,236,1.0,3.0,76,0.00,,,0.00,0.000000,,2013-03-24 08:03:00,
2013-03-24 02:32:00,-4.0,-9.0,-100.00,West,266,0.0,3.0,79,0.00,,,0.00,0.000000,,2013-03-24 08:32:00,
2013-03-24 02:42:00,-4.0,-9.0,-100.00,West,266,0.0,3.0,79,0.00,,,0.00,0.000000,,2013-03-24 08:42:00,
2013-03-24 02:52:00,-4.0,-9.0,-100.00,West,266,0.0,3.0,79,0.00,,,0.00,0.000000,,2013-03-24 08:52:00,
2013-03-24 03:02:00,-4.0,-9.0,-100.00,West,266,0.0,3.0,79,0.00,,,0.00,0.000000,,2013-03-24 09:02:00,
2013-03-24 03:33:00,-5.0,-11.0,-100.00,WSW,246,0.0,3.0,76,0.00,,,0.00,0.000000,,2013-03-24 09:33:00,
2013-03-24 03:43:00,-5.0,-11.0,-100.00,WSW,246,0.0,3.0,76,0.00,,,0.00,0.000000,,2013-03-24 09:43:00,
2013-03-24 03:52:00,-5.0,-11.0,-100.00,WSW,246,0.0,3.0,76,0.00,,,0.00,0.000000,,2013-03-24 09:52:00,
2013-03-24 04:03:00,-5.0,-11.0,-100.00,WSW,246,0.0,3.0,76,0.00,,,0.00,0.000000,,2013-03-24 10:03:00,
2013-03-24 04:33:00,-7.0,-13.0,-100.00,South,173,0.0,2.0,74,0.00,,,0.00,0.000000,,2013-03-24 10:33:00,
2013-03-24 04:42:00,-7.0,-13.0,-100.00,South,173,0.0,2.0,74,0.00,,,0.00,0.000000,,2013-03-24 10:42:00,
2013-03-24 04:52:00,-7.0,-13.0,-100.00,South,173,0.0,2.0,74,0.00,,,0.00,0.000000,,2013-03-24 10:52:00,
2013-03-24 05:03:00,-7.0,-13.0,-100.00,South,173,0.0,2.0,74,0.00,,,0.00,0.000000,,2013-03-24 11:03:00,
2013-03-24 05:33:00,-7.0,-13.0,-100.00,WNW,296,1.0,2.0,74,0.00,,,0.00,0.000000,,2013-03-24 11:33:00,
2013-03-24 05:42:00,-7.0,-13.0,-100.00,WNW,296,1.0,2.0,74,0.00,,,0.00,0.000000,,2013-03-24 11:42:00,
2013-03-24 05:52:00,-7.0,-13.0,-100.00,WNW,296,1.0,2.0,74,0.00,,,0.00,0.000000,,2013-03-24 11:52:00,
2013-03-24 06:02:00,-7.0,-13.0,-100.00,WNW,296,1.0,2.0,74,0.00,,,0.00,0.000000,,2013-03-24 12:02:00,
2013-03-24 06:32:00,-9.0,-16.0,-100.00,SSW,201,0.0,3.0,71,0.00,,,0.00,0.000000,,2013-03-24 12:32:00,
2013-03-24 06:42:00,-9.0,-16.0,-100.00,SSW,201,0.0,3.0,71,0.00,,,0.00,0.000000,,2013-03-24 12:42:00,
2013-03-24 06:52:00,-9.0,-16.0,-100.00,SSW,201,0.0,3.0,71,0.00,,,0.00,0.000000,,2013-03-24 12:52:00,
2013-03-24 07:02:00,-9.0,-16.0,-100.00,SSW,201,0.0,3.0,71,0.00,,,0.00,0.000000,,2013-03-24 13:02:00,
2013-03-24 07:33:00,-7.0,-13.0,-100.00,WSW,246,1.0,2.0,74,0.00,,,0.00,1.000000,,2013-03-24 13:33:00,
2013-03-24 07:43:00,-7.0,-13.0,-100.00,WSW,246,1.0,2.0,74,0.00,,,0.00,1.000000,,2013-03-24 13:43:00,
2013-03-24 07:52:00,-7.0,-13.0,-100.00,WSW,246,1.0,2.0,74,0.00,,,0.00,1.000000,,2013-03-24 13:52:00,
2013-03-24 08:02:00,-7.0,-13.0,-100.00,WSW,246,1.0,2.0,74,0.00,,,0.00,1.000000,,2013-03-24 14:02:00,
2013-03-24 08:33:00,-3.0,-10.0,-100.00,SE,127,0.0,2.0,71,0.00,,,0.00,50.000000,,2013-03-24 14:33:00,
2013-03-24 08:43:00,-3.0,-10.0,-100.00,SE,127,0.0,2.0,71,0.00,,,0.00,50.000000,,2013-03-24 14:43:00,
2013-03-24 08:52:00,-3.0,-10.0,-100.00,SE,127,0.0,2.0,71,0.00,,,0.00,50.000000,,2013-03-24 14:52:00,
2013-03-24 09:02:00,-3.0,-10.0,-100.00,SE,127,0.0,2.0,71,0.00,,,0.00,50.000000,,2013-03-24 15:02:00,
2013-03-24 09:33:00,7.0,-1.0,-100.00,ESE,117,1.0,3.0,70,0.00,,,0.00,203.000000,,2013-03-24 15:33:00,
2013-03-24 09:43:00,7.0,-1.0,-100.00,ESE,117,1.0,3.0,70,0.00,,,0.00,203.000000,,2013-03-24 15:43:00,
2013-03-24 09:53:00,7.0,-1.0,-100.00,ESE,117,1.0,3.0,70,0.00,,,0.00,203.000000,,2013-03-24 15:53:00,
2013-03-24 10:03:00,7.0,-1.0,-100.00,ESE,117,1.0,3.0,70,0.00,,,0.00,203.000000,,2013-03-24 16:03:00,
2013-03-24 10:33:00,14.0,-2.0,-100.00,SW,227,3.0,6.0,49,0.00,,,0.00,432.000000,,2013-03-24 16:33:00,
2013-03-24 10:43:00,14.0,-2.0,-100.00,SW,227,3.0,6.0,49,0.00,,,0.00,432.000000,,2013-03-24 16:43:00,
2013-03-24 10:52:00,14.0,-2.0,-100.00,SW,227,3.0,6.0,49,0.00,,,0.00,432.000000,,2013-03-24 16:52:00,
2013-03-24 11:02:00,14.0,-2.0,-100.00,SW,227,3.0,6.0,49,0.00,,,0.00,432.000000,,2013-03-24 17:02:00,
2013-03-24 11:33:00,13.0,-4.0,-100.00,North,9,9.0,16.0,45,0.00,,,0.00,567.000000,,2013-03-24 17:33:00,
2013-03-24 11:43:00,13.0,-4.0,-100.00,North,9,9.0,16.0,45,0.00,,,0.00,567.000000,,2013-03-24 17:43:00,
2013-03-24 11:53:00,13.0,-4.0,-100.00,North,9,9.0,16.0,45,0.00,,,0.00,567.000000,,2013-03-24 17:53:00,
2013-03-24 12:03:00,13.0,-4.0,-100.00,North,9,9.0,16.0,45,0.00,,,0.00,567.000000,,2013-03-24 18:03:00,
2013-03-24 12:33:00,13.0,-1.0,-100.00,North,356,6.0,18.0,52,0.00,,,0.00,608.000000,,2013-03-24 18:33:00,
2013-03-24 12:43:00,13.0,-1.0,-100.00,North,356,6.0,18.0,52,0.00,,,0.00,608.000000,,2013-03-24 18:43:00,
2013-03-24 12:52:00,13.0,-1.0,-100.00,North,356,6.0,18.0,52,0.00,,,0.00,608.000000,,2013-03-24 18:52:00,
2013-03-24 13:02:00,13.0,-1.0,-100.00,North,356,6.0,18.0,52,0.00,,,0.00,608.000000,,2013-03-24 19:02:00,
2013-03-24 13:32:00,18.0,-1.0,-100.00,NNW,335,3.0,18.0,43,0.00,,,0.00,600.000000,,2013-03-24 19:32:00,
2013-03-24 13:43:00,18.0,-1.0,-100.00,NNW,335,3.0,18.0,43,0.00,,,0.00,600.000000,,2013-03-24 19:43:00,
2013-03-24 13:53:00,18.0,-1.0,-100.00,NNW,335,3.0,18.0,43,0.00,,,0.00,600.000000,,2013-03-24 19:53:00,
2013-03-24 14:03:00,18.0,-1.0,-100.00,NNW,335,3.0,18.0,43,0.00,,,0.00,600.000000,,2013-03-24 20:03:00,
2013-03-24 14:33:00,14.0,-2.0,-100.00,North,352,7.0,15.0,49,0.01,,,0.01,569.000000,,2013-03-24 20:33:00,
2013-03-24 14:43:00,14.0,-2.0,-100.00,North,352,7.0,15.0,49,0.01,,,0.01,569.000000,,2013-03-24 20:43:00,
2013-03-24 14:53:00,14.0,-2.0,-100.00,North,352,7.0,15.0,49,0.01,,,0.01,569.000000,,2013-03-24 20:53:00,
2013-03-24 15:02:00,14.0,-2.0,-100.00,North,352,7.0,15.0,49,0.01,,,0.01,569.000000,,2013-03-24 21:02:00,
2013-03-24 15:33:00,13.0,0.0,-100.00,NNW,336,6.0,17.0,55,0.00,,,-99.99,390.000000,,2013-03-24 21:33:00,
2013-03-24 15:43:00,13.0,0.0,-100.00,NNW,336,6.0,17.0,55,0.00,,,-99.99,390.000000,,2013-03-24 21:43:00,
2013-03-24 15:53:00,13.0,0.0,-100.00,NNW,336,6.0,17.0,55,0.00,,,-99.99,390.000000,,2013-03-24 21:53:00,
2013-03-24 16:03:00,13.0,0.0,-100.00,NNW,336,6.0,17.0,55,0.00,,,-99.99,390.000000,,2013-03-24 22:03:00,
2013-03-24 16:33:00,13.0,-9.0,-100.00,NNW,344,12.0,26.0,36,0.00,,,0.01,405.000000,,2013-03-24 22:33:00,
2013-03-24 16:43:00,13.0,-9.0,-100.00,NNW,344,12.0,26.0,36,0.00,,,0.01,405.000000,,2013-03-24 22:43:00,
2013-03-24 16:52:00,13.0,-9.0,-100.00,NNW,344,12.0,26.0,36,0.00,,,0.01,405.000000,,2013-03-24 22:52:00,
2013-03-24 17:03:00,13.0,-9.0,-100.00,NNW,344,12.0,26.0,36,0.00,,,0.01,405.000000,,2013-03-24 23:03:00,
2013-03-24 17:32:00,11.0,-2.0,-100.00,North,354,8.0,27.0,54,0.00,,,0.01,235.000000,,2013-03-24 23:32:00,
2013-03-24 17:42:00,11.0,-2.0,-100.00,North,354,8.0,27.0,54,0.00,,,0.01,235.000000,,2013-03-24 23:42:00,
2013-03-24 17:53:00,11.0,-2.0,-100.00,North,354,8.0,27.0,54,0.00,,,0.01,235.000000,,2013-03-24 23:53:00,
2013-03-24 18:02:00,11.0,-2.0,-100.00,North,354,8.0,27.0,54,0.00,,,0.01,235.000000,,2013-03-25 00:02:00,
2013-03-24 18:33:00,9.0,-1.0,-100.00,North,1,6.0,19.0,63,0.00,,,0.01,130.000000,,2013-03-25 00:33:00,
2013-03-24 18:43:00,9.0,-1.0,-100.00,North,1,6.0,19.0,63,0.00,,,0.01,130.000000,,2013-03-25 00:43:00,
2013-03-24 18:53:00,9.0,-1.0,-100.00,North,1,6.0,19.0,63,0.00,,,0.01,130.000000,,2013-03-25 00:53:00,
2013-03-24 19:02:00,9.0,-1.0,-100.00,North,1,6.0,19.0,63,0.00,,,0.01,130.000000,,2013-03-25 01:02:00,
2013-03-24 19:32:00,7.0,2.0,-100.00,North,10,6.0,15.0,78,0.00,,,0.01,31.000000,,2013-03-25 01:32:00,
2013-03-24 19:42:00,7.0,2.0,-100.00,North,10,6.0,15.0,78,0.00,,,0.01,31.000000,,2013-03-25 01:42:00,
2013-03-24 19:52:00,7.0,2.0,-100.00,North,10,6.0,15.0,78,0.00,,,0.01,31.000000,,2013-03-25 01:52:00,
2013-03-24 20:02:00,7.0,2.0,-100.00,North,10,6.0,15.0,78,0.00,,,0.01,31.000000,,2013-03-25 02:02:00,
2013-03-24 20:33:00,6.0,1.0,-100.00,NNW,348,3.0,10.0,78,0.00,,,-99.99,2.000000,,2013-03-25 02:33:00,
2013-03-24 20:43:00,6.0,1.0,-100.00,NNW,348,3.0,10.0,78,0.00,,,-99.99,2.000000,,2013-03-25 02:43:00,
2013-03-24 20:52:00,6.0,1.0,-100.00,NNW,348,3.0,10.0,78,0.00,,,-99.99,2.000000,,2013-03-25 02:52:00,
2013-03-24 21:02:00,6.0,1.0,-100.00,NNW,348,3.0,10.0,78,0.00,,,-99.99,2.000000,,2013-03-25 03:02:00,
2013-03-24 21:34:00,4.0,-2.0,-100.00,North,11,2.0,8.0,75,0.00,,,0.01,0.000000,,2013-03-25 03:34:00,
2013-03-24 21:43:00,4.0,-2.0,-100.00,North,11,2.0,8.0,75,0.00,,,0.01,0.000000,,2013-03-25 03:43:00,
2013-03-24 21:53:00,4.0,-2.0,-100.00,North,11,2.0,8.0,75,0.00,,,0.01,0.000000,,2013-03-25 03:53:00,
2013-03-24 22:02:00,4.0,-2.0,-100.00,North,11,2.0,8.0,75,0.00,,,0.01,0.000000,,2013-03-25 04:02:00,
2013-03-24 22:33:00,0.0,-7.0,-100.00,SSE,164,1.0,8.0,73,0.00,,,0.01,0.000000,,2013-03-25 04:33:00,
2013-03-24 22:43:00,0.0,-7.0,-100.00,SSE,164,1.0,8.0,73,0.00,,,0.01,0.000000,,2013-03-25 04:43:00,
2013-03-24 22:52:00,0.0,-7.0,-100.00,SSE,164,1.0,8.0,73,0.00,,,0.01,0.000000,,2013-03-25 04:52:00,
2013-03-24 23:03:00,0.0,-7.0,-100.00,SSE,164,1.0,8.0,73,0.00,,,0.01,0.000000,,2013-03-25 05:03:00,
2013-03-24 23:33:00,-2.0,-8.0,-100.00,WNW,283,2.0,3.0,75,0.00,,,0.01,0.000000,,2013-03-25 05:33:00,
2013-03-24 23:42:00,-2.0,-8.0,-100.00,WNW,283,2.0,3.0,75,0.00,,,0.01,0.000000,,2013-03-25 05:42:00,
2013-03-24 23:52:00,-2.0,-8.0,-100.00,WNW,283,2.0,3.0,75,0.00,,,0.01,0.000000,,2013-03-25 05:52:00,